Time,TemperatureF,DewpointF,PressureIn,WindDirection,WindDirectionDegrees,WindSpeedMPH,WindSpeedGustMPH,Humidity,HourlyPrecipIn,Conditions,Clouds,dailyrainin,SoftwareType,DateUTC
2013-09-12 00:01:00,76.1,68.0,30.07,NNW,327,0.0,0.0,76,0.00,,---,0.00,VWS V14.00,2013-09-12 05:01:00,
2013-09-12 00:06:00,76.0,67.9,30.06,NNW,327,0.0,0.0,76,0.00,,---,0.00,VWS V14.00,2013-09-12 05:06:00,
2013-09-12 00:11:00,76.1,68.4,30.06,NNW,327,0.0,0.0,77,0.00,,---,0.00,VWS V14.00,2013-09-12 05:11:00,
2013-09-12 00:16:00,76.1,69.1,30.06,NNW,329,0.0,0.0,79,0.00,,---,0.00,VWS V14.00,2013-09-12 05:16:00,
2013-09-12 00:21:00,76.0,69.4,30.06,NNW,329,0.0,0.0,80,0.00,,---,0.00,VWS V14.00,2013-09-12 05:21:00,
2013-09-12 00:26:00,76.0,69.8,30.06,NNW,329,0.0,0.0,81,0.00,,---,0.00,VWS V14.00,2013-09-12 05:26:00,
2013-09-12 00:31:00,75.8,69.2,30.06,NNW,329,0.0,0.0,80,0.00,,---,0.00,VWS V14.00,2013-09-12 05:31:00,
2013-09-12 00:36:00,75.8,69.6,30.06,NNW,329,0.0,0.0,81,0.00,,---,0.00,VWS V14.00,2013-09-12 05:36:00,
2013-09-12 00:41:00,75.8,69.6,30.06,NNW,329,0.0,0.0,81,0.00,,---,0.00,VWS V14.00,2013-09-12 05:41:00,
2013-09-12 00:46:00,75.6,69.4,30.06,NNW,329,0.0,0.0,81,0.00,,---,0.00,VWS V14.00,2013-09-12 05:46:00,
2013-09-12 00:51:00,75.3,69.1,30.06,NNW,329,0.0,0.0,81,0.00,,---,0.00,VWS V14.00,2013-09-12 05:51:00,
2013-09-12 00:56:00,75.1,69.2,30.05,NNW,329,0.0,0.0,82,0.00,,---,0.00,VWS V14.00,2013-09-12 05:56:00,
2013-09-12 01:01:00,75.1,69.6,30.05,NNW,329,0.0,0.0,83,0.00,,---,0.00,VWS V14.00,2013-09-12 06:01:00,
2013-09-12 01:06:00,75.3,69.4,30.05,NNW,329,0.0,0.0,82,0.00,,---,0.00,VWS V14.00,2013-09-12 06:06:00,
2013-09-12 01:11:00,75.3,69.8,30.05,NNW,329,0.0,0.0,83,0.00,,---,0.00,VWS V14.00,2013-09-12 06:11:00,
2013-09-12 01:16:00,75.4,69.9,30.05,NNW,329,0.0,0.0,83,0.00,,---,0.00,VWS V14.00,2013-09-12 06:16:00,
2013-09-12 01:21:00,75.3,69.4,30.05,NNW,329,0.0,0.0,82,0.00,,---,0.00,VWS V14.00,2013-09-12 06:21:00,
2013-09-12 01:26:00,75.1,69.6,30.05,NNW,329,0.0,0.0,83,0.00,,---,0.00,VWS V14.00,2013-09-12 06:26:00,
2013-09-12 01:31:00,75.3,69.8,30.05,NNW,329,0.0,0.0,83,0.00,,---,0.00,VWS V14.00,2013-09-12 06:31:00,
2013-09-12 01:36:00,75.1,69.2,30.05,NNW,329,0.0,0.0,82,0.00,,---,0.00,VWS V14.00,2013-09-12 06:36:00,
2013-09-12 01:41:00,74.9,69.0,30.05,NNW,329,0.0,0.0,82,0.00,,---,0.00,VWS V14.00,2013-09-12 06:41:00,
2013-09-12 01:46:00,74.9,69.0,30.05,NNW,329,0.0,0.0,82,0.00,,---,0.00,VWS V14.00,2013-09-12 06:46:00,
2013-09-12 01:51:00,74.9,69.7,30.05,NNW,329,0.0,0.0,84,0.00,,---,0.00,VWS V14.00,2013-09-12 06:51:00,
2013-09-12 01:56:00,74.9,69.7,30.05,NNW,329,0.0,0.0,84,0.00,,---,0.00,VWS V14.00,2013-09-12 06:56:00,
2013-09-12 02:01:00,74.7,69.6,30.05,NNW,329,0.0,0.0,84,0.00,,---,0.00,VWS V14.00,2013-09-12 07:01:00,
2013-09-12 02:06:00,74.6,69.4,30.05,NNW,329,0.0,0.0,84,0.00,,---,0.00,VWS V14.00,2013-09-12 07:06:00,
2013-09-12 02:11:00,74.4,69.3,30.05,NNW,329,0.0,0.0,84,0.00,,---,0.00,VWS V14.00,2013-09-12 07:11:00,
2013-09-12 02:16:00,74.4,69.3,30.05,NNW,329,0.0,0.0,84,0.00,,---,0.00,VWS V14.00,2013-09-12 07:16:00,
2013-09-12 02:21:00,74.4,69.3,30.05,NNW,329,0.0,0.0,84,0.00,,---,0.00,VWS V14.00,2013-09-12 07:21:00,
2013-09-12 02:26:00,74.4,69.3,30.05,NNW,329,0.0,0.0,84,0.00,,---,0.00,VWS V14.00,2013-09-12 07:26:00,
2013-09-12 02:31:00,74.2,69.1,30.05,NNW,329,0.0,0.0,84,0.00,,---,0.00,VWS V14.00,2013-09-12 07:31:00,
2013-09-12 02:36:00,74.2,69.1,30.04,NNW,329,0.0,0.0,84,0.00,,---,0.00,VWS V14.00,2013-09-12 07:36:00,
2013-09-12 02:41:00,74.2,69.1,30.04,NNW,329,0.0,0.0,84,0.00,,---,0.00,VWS V14.00,2013-09-12 07:41:00,
2013-09-12 02:46:00,74.2,69.1,30.04,NNW,329,0.0,0.0,84,0.00,,---,0.00,VWS V14.00,2013-09-12 07:46:00,
2013-09-12 02:51:00,74.0,68.9,30.04,NNW,329,0.0,0.0,84,0.00,,---,0.00,VWS V14.00,2013-09-12 07:51:00,
2013-09-12 02:56:00,74.0,69.2,30.04,NNW,329,0.0,0.0,85,0.00,,---,0.00,VWS V14.00,2013-09-12 07:56:00,
2013-09-12 03:01:00,74.0,69.2,30.03,NNW,329,0.0,0.0,85,0.00,,---,0.00,VWS V14.00,2013-09-12 08:01:00,
2013-09-12 03:06:00,73.9,69.4,30.03,NNW,329,0.0,0.0,86,0.00,,---,0.00,VWS V14.00,2013-09-12 08:06:00,
2013-09-12 03:11:00,73.9,69.4,30.03,NNW,329,0.0,0.0,86,0.00,,---,0.00,VWS V14.00,2013-09-12 08:11:00,
2013-09-12 03:16:00,74.0,69.6,30.03,NNW,329,0.0,0.0,86,0.00,,---,0.00,VWS V14.00,2013-09-12 08:16:00,
2013-09-12 03:21:00,73.9,69.4,30.03,NNW,329,0.0,0.0,86,0.00,,---,0.00,VWS V14.00,2013-09-12 08:21:00,
2013-09-12 03:26:00,73.9,69.4,30.03,NNW,329,0.0,0.0,86,0.00,,---,0.00,VWS V14.00,2013-09-12 08:26:00,
2013-09-12 03:31:00,73.7,69.3,30.03,NNW,329,0.0,0.0,86,0.00,,---,0.00,VWS V14.00,2013-09-12 08:31:00,
2013-09-12 03:36:00,73.5,69.1,30.03,NNW,329,0.0,0.0,86,0.00,,---,0.00,VWS V14.00,2013-09-12 08:36:00,
2013-09-12 03:41:00,73.3,68.9,30.04,NNW,329,0.0,0.0,86,0.00,,---,0.00,VWS V14.00,2013-09-12 08:41:00,
2013-09-12 03:46:00,73.2,69.1,30.03,NNW,329,0.0,0.0,87,0.00,,---,0.00,VWS V14.00,2013-09-12 08:46:00,
2013-09-12 03:51:00,73.0,68.9,30.04,NNW,329,0.0,0.0,87,0.00,,---,0.00,VWS V14.00,2013-09-12 08:51:00,
2013-09-12 03:56:00,72.8,68.7,30.04,NNW,329,0.0,0.0,87,0.00,,---,0.00,VWS V14.00,2013-09-12 08:56:00,
2013-09-12 04:01:00,72.8,69.0,30.04,NNW,329,0.0,0.0,88,0.00,,---,0.00,VWS V14.00,2013-09-12 09:01:00,
2013-09-12 04:06:00,72.7,68.9,30.04,NNW,329,0.0,0.0,88,0.00,,---,0.00,VWS V14.00,2013-09-12 09:06:00,
2013-09-12 04:11:00,72.5,68.8,30.04,NNW,329,0.0,0.0,88,0.00,,---,0.00,VWS V14.00,2013-09-12 09:11:00,
2013-09-12 04:16:00,72.3,68.6,30.04,NNW,329,0.0,0.0,88,0.00,,---,0.00,VWS V14.00,2013-09-12 09:16:00,
2013-09-12 04:21:00,72.1,68.3,30.04,NNW,329,0.0,0.0,88,0.00,,---,0.00,VWS V14.00,2013-09-12 09:21:00,
2013-09-12 04:26:00,72.1,68.3,30.04,NNW,329,0.0,0.0,88,0.00,,---,0.00,VWS V14.00,2013-09-12 09:26:00,
2013-09-12 04:31:00,72.0,68.3,30.04,NNW,329,0.0,0.0,88,0.00,,---,0.00,VWS V14.00,2013-09-12 09:31:00,
2013-09-12 04:36:00,71.8,68.1,30.04,NNW,329,0.0,0.0,88,0.00,,---,0.00,VWS V14.00,2013-09-12 09:36:00,
2013-09-12 04:41:00,71.8,68.4,30.03,NNW,329,0.0,0.0,89,0.00,,---,0.00,VWS V14.00,2013-09-12 09:41:00,
2013-09-12 04:46:00,71.8,68.4,30.03,NNW,329,0.0,0.0,89,0.00,,---,0.00,VWS V14.00,2013-09-12 09:46:00,
2013-09-12 04:51:00,71.6,68.2,30.04,NNW,329,0.0,0.0,89,0.00,,---,0.00,VWS V14.00,2013-09-12 09:51:00,
2013-09-12 04:56:00,71.6,68.2,30.04,NNW,329,0.0,0.0,89,0.00,,---,0.00,VWS V14.00,2013-09-12 09:56:00,
2013-09-12 05:01:00,71.6,68.2,30.04,NNW,329,0.0,0.0,89,0.00,,---,0.00,VWS V14.00,2013-09-12 10:01:00,
2013-09-12 05:06:00,71.5,68.4,30.04,NNW,329,0.0,0.0,90,0.00,,---,0.00,VWS V14.00,2013-09-12 10:06:00,
2013-09-12 05:11:00,71.5,68.7,30.04,NNW,329,0.0,0.0,91,0.00,,---,0.00,VWS V14.00,2013-09-12 10:11:00,
2013-09-12 05:16:00,71.3,68.5,30.04,NNW,329,0.0,0.0,91,0.00,,---,0.00,VWS V14.00,2013-09-12 10:16:00,
2013-09-12 05:21:00,71.3,68.5,30.04,NNW,329,0.0,0.0,91,0.00,,---,0.00,VWS V14.00,2013-09-12 10:21:00,
2013-09-12 05:26:00,71.1,68.3,30.04,NNW,329,0.0,0.0,91,0.00,,---,0.00,VWS V14.00,2013-09-12 10:26:00,
2013-09-12 05:31:00,70.9,68.2,30.04,NNW,329,0.0,0.0,91,0.00,,---,0.00,VWS V14.00,2013-09-12 10:31:00,
2013-09-12 05:36:00,70.9,68.2,30.04,NNW,329,0.0,0.0,91,0.00,,---,0.00,VWS V14.00,2013-09-12 10:36:00,
2013-09-12 05:40:00,70.8,68.1,30.04,NNW,329,0.0,0.0,91,0.00,,---,0.00,VWS V14.00,2013-09-12 10:40:00,
2013-09-12 05:45:00,70.8,68.1,30.04,NNW,329,0.0,0.0,91,0.00,,---,0.00,VWS V14.00,2013-09-12 10:45:00,
2013-09-12 05:50:00,70.6,67.8,30.04,NNW,329,0.0,0.0,91,0.00,,---,0.00,VWS V14.00,2013-09-12 10:50:00,
2013-09-12 05:55:00,70.4,67.7,30.04,NNW,329,0.0,0.0,91,0.00,,---,0.00,VWS V14.00,2013-09-12 10:55:00,
2013-09-12 06:00:00,70.3,67.6,30.05,NNW,329,0.0,0.0,91,0.00,,---,0.00,VWS V14.00,2013-09-12 11:00:00,
2013-09-12 06:05:00,70.3,67.6,30.05,NNW,329,0.0,0.0,91,0.00,,---,0.00,VWS V14.00,2013-09-12 11:05:00,
2013-09-12 06:10:00,70.3,67.9,30.05,NNW,329,0.0,0.0,92,0.00,,---,0.00,VWS V14.00,2013-09-12 11:10:00,
2013-09-12 06:15:00,70.1,67.7,30.05,NNW,329,0.0,0.0,92,0.00,,---,0.00,VWS V14.00,2013-09-12 11:15:00,
2013-09-12 06:20:00,70.1,67.7,30.05,NNW,329,0.0,0.0,92,0.00,,---,0.00,VWS V14.00,2013-09-12 11:20:00,
2013-09-12 06:25:00,70.3,67.9,30.05,NNW,329,0.0,0.0,92,0.00,,---,0.00,VWS V14.00,2013-09-12 11:25:00,
2013-09-12 06:30:00,70.1,67.7,30.06,NNW,329,0.0,0.0,92,0.00,,---,0.00,VWS V14.00,2013-09-12 11:30:00,
2013-09-12 06:35:00,70.1,67.7,30.06,NNW,329,0.0,0.0,92,0.00,,---,0.00,VWS V14.00,2013-09-12 11:35:00,
2013-09-12 06:40:00,70.1,67.7,30.06,NNW,329,0.0,0.0,92,0.00,,---,0.00,VWS V14.00,2013-09-12 11:40:00,
2013-09-12 06:45:00,69.9,67.5,30.06,NNW,329,0.0,0.0,92,0.00,,---,0.00,VWS V14.00,2013-09-12 11:45:00,
2013-09-12 06:50:00,69.9,67.5,30.06,NNW,329,0.0,0.0,92,0.00,,---,0.00,VWS V14.00,2013-09-12 11:50:00,
2013-09-12 06:55:00,69.9,67.5,30.06,NNW,329,0.0,0.0,92,0.00,,---,0.00,VWS V14.00,2013-09-12 11:55:00,
2013-09-12 07:00:00,69.8,67.4,30.07,NNW,329,0.0,0.0,92,0.00,,---,0.00,VWS V14.00,2013-09-12 12:00:00,
2013-09-12 07:05:00,69.8,67.4,30.07,NNW,329,0.0,0.0,92,0.00,,---,0.00,VWS V14.00,2013-09-12 12:05:00,
2013-09-12 07:10:00,69.8,67.4,30.07,NNW,329,0.0,0.0,92,0.00,,---,0.00,VWS V14.00,2013-09-12 12:10:00,
2013-09-12 07:15:00,69.9,67.8,30.07,NNW,329,0.0,0.0,93,0.00,,---,0.00,VWS V14.00,2013-09-12 12:15:00,
2013-09-12 07:20:00,69.8,67.7,30.07,NNW,329,0.0,0.0,93,0.00,,---,0.00,VWS V14.00,2013-09-12 12:20:00,
2013-09-12 07:25:00,69.8,67.7,30.08,NNW,329,0.0,0.0,93,0.00,,---,0.00,VWS V14.00,2013-09-12 12:25:00,
2013-09-12 07:30:00,69.9,67.8,30.08,NNW,329,0.0,0.0,93,0.00,,---,0.00,VWS V14.00,2013-09-12 12:30:00,
2013-09-12 07:35:00,69.9,67.8,30.08,NNW,329,0.0,0.0,93,0.00,,---,0.00,VWS V14.00,2013-09-12 12:35:00,
2013-09-12 07:40:00,70.1,68.0,30.08,NNW,329,0.0,0.0,93,0.00,,---,0.00,VWS V14.00,2013-09-12 12:40:00,
2013-09-12 07:45:00,70.3,68.2,30.08,NNW,329,0.0,0.0,93,0.00,,---,0.00,VWS V14.00,2013-09-12 12:45:00,
2013-09-12 07:50:00,70.4,68.3,30.08,NNW,329,0.0,0.0,93,0.00,,---,0.00,VWS V14.00,2013-09-12 12:50:00,
2013-09-12 07:55:00,70.6,68.5,30.08,NNW,329,0.0,0.0,93,0.00,,---,0.00,VWS V14.00,2013-09-12 12:55:00,
2013-09-12 08:00:00,70.9,68.8,30.08,NNW,329,0.0,0.0,93,0.00,,---,0.00,VWS V14.00,2013-09-12 13:00:00,
2013-09-12 08:05:00,71.3,69.2,30.08,NNW,329,0.0,0.0,93,0.00,,---,0.00,VWS V14.00,2013-09-12 13:05:00,
2013-09-12 08:10:00,71.5,69.1,30.08,NNW,329,0.0,0.0,92,0.00,,---,0.00,VWS V14.00,2013-09-12 13:10:00,
2013-09-12 08:15:00,71.5,69.1,30.08,NNW,329,0.0,0.0,92,0.00,,---,0.00,VWS V14.00,2013-09-12 13:15:00,
2013-09-12 08:20:00,71.6,69.2,30.08,NNW,329,0.0,0.0,92,0.00,,---,0.00,VWS V14.00,2013-09-12 13:20:00,
2013-09-12 08:25:00,71.6,69.2,30.08,NNW,329,0.0,0.0,92,0.00,,---,0.00,VWS V14.00,2013-09-12 13:25:00,
2013-09-12 08:30:00,71.6,69.2,30.08,NNW,329,0.0,0.0,92,0.00,,---,0.00,VWS V14.00,2013-09-12 13:30:00,
2013-09-12 08:35:00,71.5,68.7,30.08,NNW,329,0.0,0.0,91,0.00,,---,0.00,VWS V14.00,2013-09-12 13:35:00,
2013-09-12 08:40:00,71.5,69.1,30.08,NNW,329,0.0,0.0,92,0.00,,---,0.00,VWS V14.00,2013-09-12 13:40:00,
2013-09-12 08:45:00,71.8,69.3,30.08,NNW,329,0.0,0.0,92,0.00,,---,0.00,VWS V14.00,2013-09-12 13:45:00,
2013-09-12 08:50:00,72.3,69.5,30.08,NNW,329,0.0,0.0,91,0.00,,---,0.00,VWS V14.00,2013-09-12 13:50:00,
2013-09-12 08:55:00,72.5,69.7,30.08,NNW,329,0.0,0.0,91,0.00,,---,0.00,VWS V14.00,2013-09-12 13:55:00,
2013-09-12 09:00:00,72.8,69.7,30.08,NNW,329,0.0,0.0,90,0.00,,---,0.00,VWS V14.00,2013-09-12 14:00:00,
2013-09-12 09:05:00,73.2,70.1,30.08,NNW,329,0.0,0.0,90,0.00,,---,0.00,VWS V14.00,2013-09-12 14:05:00,
2013-09-12 09:10:00,73.5,70.1,30.08,NNW,329,0.0,0.0,89,0.00,,---,0.00,VWS V14.00,2013-09-12 14:10:00,
2013-09-12 09:15:00,73.9,70.1,30.09,NNW,329,0.0,0.0,88,0.00,,---,0.00,VWS V14.00,2013-09-12 14:15:00,
2013-09-12 09:20:00,74.4,70.6,30.09,NNW,329,0.0,0.0,88,0.00,,---,0.00,VWS V14.00,2013-09-12 14:20:00,
2013-09-12 09:25:00,74.9,70.4,30.09,NNW,329,0.0,0.0,86,0.00,,---,0.00,VWS V14.00,2013-09-12 14:25:00,
2013-09-12 09:30:00,75.6,70.8,30.09,NNW,329,0.0,0.0,85,0.00,,---,0.00,VWS V14.00,2013-09-12 14:30:00,
2013-09-12 09:35:00,76.0,70.8,30.09,NNW,329,0.0,0.0,84,0.00,,---,0.00,VWS V14.00,2013-09-12 14:35:00,
2013-09-12 09:40:00,76.3,70.8,30.09,NNW,329,0.0,0.0,83,0.00,,---,0.00,VWS V14.00,2013-09-12 14:40:00,
2013-09-12 09:45:00,76.7,71.2,30.09,NNW,329,0.0,0.0,83,0.00,,---,0.00,VWS V14.00,2013-09-12 14:45:00,
2013-09-12 09:50:00,77.2,71.3,30.09,NNW,329,0.0,0.0,82,0.00,,---,0.00,VWS V14.00,2013-09-12 14:50:00,
2013-09-12 09:55:00,77.7,71.8,30.09,NNW,329,0.0,0.0,82,0.00,,---,0.00,VWS V14.00,2013-09-12 14:55:00,
2013-09-12 10:00:00,78.3,72.0,30.09,NNW,329,0.0,0.0,81,0.00,,---,0.00,VWS V14.00,2013-09-12 15:00:00,
2013-09-12 10:05:00,78.8,72.1,30.09,NNW,329,0.0,0.0,80,0.00,,---,0.00,VWS V14.00,2013-09-12 15:05:00,
2013-09-12 10:10:00,79.0,71.9,30.09,NNW,329,0.0,0.0,79,0.00,,---,0.00,VWS V14.00,2013-09-12 15:10:00,
2013-09-12 10:15:00,79.0,71.9,30.09,NNW,329,0.0,0.0,79,0.00,,---,0.00,VWS V14.00,2013-09-12 15:15:00,
2013-09-12 10:20:00,79.2,71.8,30.09,NNW,329,0.0,0.0,78,0.00,,---,0.00,VWS V14.00,2013-09-12 15:20:00,
2013-09-12 10:25:00,79.4,71.9,30.09,NNW,329,0.0,0.0,78,0.00,,---,0.00,VWS V14.00,2013-09-12 15:25:00,
2013-09-12 10:30:00,79.4,71.9,30.09,NNW,329,0.0,0.0,78,0.00,,---,0.00,VWS V14.00,2013-09-12 15:30:00,
2013-09-12 10:35:00,79.9,72.1,30.09,NNW,329,0.0,0.0,77,0.00,,---,0.00,VWS V14.00,2013-09-12 15:35:00,
2013-09-12 10:40:00,81.1,72.4,30.09,NNW,329,0.0,0.0,75,0.00,,---,0.00,VWS V14.00,2013-09-12 15:40:00,
2013-09-12 10:45:00,81.2,72.5,30.09,NNW,329,0.0,0.0,75,0.00,,---,0.00,VWS V14.00,2013-09-12 15:45:00,
2013-09-12 10:50:00,80.9,71.8,30.09,NNW,330,0.0,0.0,74,0.00,,---,0.00,VWS V14.00,2013-09-12 15:50:00,
2013-09-12 10:55:00,80.9,71.8,30.09,NNW,330,0.0,0.0,74,0.00,,---,0.00,VWS V14.00,2013-09-12 15:55:00,
2013-09-12 11:00:00,81.1,72.0,30.09,NNW,330,0.0,0.0,74,0.00,,---,0.00,VWS V14.00,2013-09-12 16:00:00,
2013-09-12 11:05:00,81.1,71.6,30.08,NNW,331,0.0,0.0,73,0.00,,---,0.00,VWS V14.00,2013-09-12 16:05:00,
2013-09-12 11:10:00,81.4,71.5,30.08,NNW,331,0.0,0.0,72,0.00,,---,0.00,VWS V14.00,2013-09-12 16:10:00,
2013-09-12 11:15:00,82.0,72.1,30.08,NNW,331,0.0,0.0,72,0.00,,---,0.00,VWS V14.00,2013-09-12 16:15:00,
2013-09-12 11:20:00,82.8,72.4,30.08,NNW,331,0.0,0.0,71,0.00,,---,0.00,VWS V14.00,2013-09-12 16:20:00,
2013-09-12 11:25:00,83.0,71.8,30.08,NNW,331,0.0,0.0,69,0.00,,---,0.00,VWS V14.00,2013-09-12 16:25:00,
2013-09-12 11:30:00,82.8,71.6,30.07,NNW,331,0.0,0.0,69,0.00,,---,0.00,VWS V14.00,2013-09-12 16:30:00,
2013-09-12 11:35:00,82.6,71.0,30.07,NNW,335,0.0,0.0,68,0.00,,---,0.00,VWS V14.00,2013-09-12 16:35:00,
2013-09-12 11:40:00,82.6,71.0,30.07,NNW,335,0.0,0.0,68,0.00,,---,0.00,VWS V14.00,2013-09-12 16:40:00,
2013-09-12 11:45:00,82.6,70.5,30.07,NNW,335,0.0,0.0,67,0.00,,---,0.00,VWS V14.00,2013-09-12 16:45:00,
2013-09-12 11:50:00,82.8,69.8,30.07,NNW,335,0.0,0.0,65,0.00,,---,0.00,VWS V14.00,2013-09-12 16:50:00,
2013-09-12 11:55:00,82.8,69.4,30.07,NNW,340,0.0,0.0,64,0.00,,---,0.00,VWS V14.00,2013-09-12 16:55:00,
2013-09-12 12:00:00,83.0,69.6,30.07,North,355,0.0,0.0,64,0.00,,---,0.00,VWS V14.00,2013-09-12 17:00:00,
2013-09-12 12:05:00,83.2,69.3,30.07,North,349,0.0,0.0,63,0.00,,---,0.00,VWS V14.00,2013-09-12 17:05:00,
2013-09-12 12:10:00,83.4,69.5,30.07,North,349,0.0,0.0,63,0.00,,---,0.00,VWS V14.00,2013-09-12 17:10:00,
2013-09-12 12:15:00,83.6,69.2,30.07,North,355,0.0,0.0,62,0.00,,---,0.00,VWS V14.00,2013-09-12 17:15:00,
2013-09-12 12:20:00,84.0,69.6,30.06,North,355,0.0,0.0,62,0.00,,---,0.00,VWS V14.00,2013-09-12 17:20:00,
2013-09-12 12:25:00,84.1,69.7,30.06,North,355,0.0,0.0,62,0.00,,---,0.00,VWS V14.00,2013-09-12 17:25:00,
2013-09-12 12:30:00,84.3,69.4,30.06,North,355,0.0,0.0,61,0.00,,---,0.00,VWS V14.00,2013-09-12 17:30:00,
2013-09-12 12:35:00,84.3,69.4,30.06,North,350,0.0,0.0,61,0.00,,---,0.00,VWS V14.00,2013-09-12 17:35:00,
2013-09-12 12:40:00,84.5,69.1,30.05,North,350,0.0,0.0,60,0.00,,---,0.00,VWS V14.00,2013-09-12 17:40:00,
2013-09-12 12:45:00,84.7,69.3,30.05,North,350,0.0,0.0,60,0.00,,---,0.00,VWS V14.00,2013-09-12 17:45:00,
2013-09-12 12:50:00,84.7,69.3,30.05,North,350,0.0,0.0,60,0.00,,---,0.00,VWS V14.00,2013-09-12 17:50:00,
2013-09-12 12:55:00,84.9,69.5,30.05,North,355,0.0,0.0,60,0.00,,---,0.00,VWS V14.00,2013-09-12 17:55:00,
2013-09-12 13:00:00,84.9,69.0,30.05,North,355,0.0,0.0,59,0.00,,---,0.00,VWS V14.00,2013-09-12 18:00:00,
2013-09-12 13:05:00,85.3,69.4,30.05,NNW,334,0.0,0.0,59,0.00,,---,0.00,VWS V14.00,2013-09-12 18:05:00,
2013-09-12 13:10:00,85.3,69.4,30.05,NNW,335,0.0,0.0,59,0.00,,---,0.00,VWS V14.00,2013-09-12 18:10:00,
2013-09-12 13:15:00,85.3,68.9,30.05,NNW,336,0.0,0.0,58,0.00,,---,0.00,VWS V14.00,2013-09-12 18:15:00,
2013-09-12 13:20:00,85.5,69.1,30.04,NNW,336,0.0,0.0,58,0.00,,---,0.00,VWS V14.00,2013-09-12 18:20:00,
2013-09-12 13:25:00,85.5,69.1,30.04,NNW,342,3.0,7.0,58,0.00,,---,0.00,VWS V14.00,2013-09-12 18:25:00,
2013-09-12 13:30:00,85.7,69.7,30.04,NNW,342,4.0,5.0,59,0.00,,---,0.00,VWS V14.00,2013-09-12 18:30:00,
2013-09-12 13:35:00,85.9,68.9,30.04,NNW,339,3.0,6.0,57,0.00,,---,0.00,VWS V14.00,2013-09-12 18:35:00,
2013-09-12 13:40:00,86.1,68.6,30.04,NNW,340,2.0,7.0,56,0.00,,---,0.00,VWS V14.00,2013-09-12 18:40:00,
2013-09-12 13:45:00,86.3,69.3,30.03,NNW,340,4.0,6.0,57,0.00,,---,0.00,VWS V14.00,2013-09-12 18:45:00,
2013-09-12 13:50:00,86.5,68.4,30.03,NNW,332,2.0,11.0,55,0.00,,---,0.00,VWS V14.00,2013-09-12 18:50:00,
2013-09-12 13:55:00,86.7,68.1,30.03,NNW,335,3.0,9.0,54,0.00,,---,0.00,VWS V14.00,2013-09-12 18:55:00,
2013-09-12 14:00:00,87.0,67.8,30.03,NNW,334,0.0,5.0,53,0.00,,---,0.00,VWS V14.00,2013-09-12 19:00:00,
2013-09-12 14:05:00,87.2,68.5,30.02,NNW,331,7.0,9.0,54,0.00,,---,0.00,VWS V14.00,2013-09-12 19:05:00,
2013-09-12 14:10:00,87.4,67.1,30.02,NNW,329,2.0,4.0,51,0.00,,---,0.00,VWS V14.00,2013-09-12 19:10:00,
2013-09-12 14:15:00,87.6,67.8,30.02,NNW,329,2.0,7.0,52,0.00,,---,0.00,VWS V14.00,2013-09-12 19:15:00,
2013-09-12 14:20:00,87.8,68.0,30.02,NNW,332,4.0,7.0,52,0.00,,---,0.00,VWS V14.00,2013-09-12 19:20:00,
2013-09-12 14:25:00,87.8,65.7,30.02,NNW,332,6.0,7.0,48,0.00,,---,0.00,VWS V14.00,2013-09-12 19:25:00,
2013-09-12 14:30:00,87.8,65.7,30.01,NNW,331,6.0,9.0,48,0.00,,---,0.00,VWS V14.00,2013-09-12 19:30:00,
2013-09-12 14:35:00,88.0,67.1,30.01,NNW,331,12.0,12.0,50,0.00,,---,0.00,VWS V14.00,2013-09-12 19:35:00,
2013-09-12 14:40:00,88.0,66.5,30.01,NNW,333,0.0,0.0,49,0.00,,---,0.00,VWS V14.00,2013-09-12 19:40:00,
2013-09-12 14:45:00,88.4,66.2,30.00,NNW,338,6.0,7.0,48,0.00,,---,0.00,VWS V14.00,2013-09-12 19:45:00,
2013-09-12 14:50:00,88.6,67.0,30.00,NNW,331,7.0,8.0,49,0.00,,---,0.00,VWS V14.00,2013-09-12 19:50:00,
2013-09-12 14:55:00,88.6,63.9,30.00,NNW,339,10.0,13.0,44,0.00,,---,0.00,VWS V14.00,2013-09-12 19:55:00,
2013-09-12 15:00:00,88.6,65.2,30.00,NNW,332,4.0,6.0,46,0.00,,---,0.00,VWS V14.00,2013-09-12 20:00:00,
2013-09-12 15:05:00,88.2,64.8,30.00,NNW,333,5.0,9.0,46,0.00,,---,0.00,VWS V14.00,2013-09-12 20:05:00,
2013-09-12 15:10:00,88.2,66.7,30.00,NNW,329,12.0,15.0,49,0.00,,---,0.00,VWS V14.00,2013-09-12 20:10:00,
2013-09-12 15:15:00,87.6,66.7,29.99,NNW,333,10.0,13.0,50,0.00,,---,0.00,VWS V14.00,2013-09-12 20:15:00,
2013-09-12 15:20:00,87.4,66.5,29.99,NNW,345,12.0,13.0,50,0.00,,---,0.00,VWS V14.00,2013-09-12 20:20:00,
2013-09-12 15:25:00,87.6,65.5,29.99,NNW,331,10.0,15.0,48,0.00,,---,0.00,VWS V14.00,2013-09-12 20:25:00,
2013-09-12 15:30:00,87.8,65.7,29.99,NNW,327,12.0,13.0,48,0.00,,---,0.00,VWS V14.00,2013-09-12 20:30:00,
2013-09-12 15:35:00,87.6,66.1,29.99,NW,323,8.0,12.0,49,0.00,,---,0.00,VWS V14.00,2013-09-12 20:35:00,
2013-09-12 15:40:00,87.6,65.5,29.99,NW,324,4.0,6.0,48,0.00,,---,0.00,VWS V14.00,2013-09-12 20:40:00,
2013-09-12 15:45:00,87.8,65.1,29.99,NW,325,14.0,14.0,47,0.00,,---,0.00,VWS V14.00,2013-09-12 20:45:00,
2013-09-12 15:49:00,88.0,65.3,29.99,NNW,327,11.0,11.0,47,0.00,,---,0.00,VWS V14.00,2013-09-12 20:49:00,
2013-09-12 15:54:00,88.0,65.9,29.98,NNW,334,9.0,14.0,48,0.00,,---,0.00,VWS V14.00,2013-09-12 20:54:00,
2013-09-12 15:59:00,88.0,66.5,29.98,NW,322,7.0,12.0,49,0.00,,---,0.00,VWS V14.00,2013-09-12 20:59:00,
2013-09-12 16:04:00,88.0,67.1,29.98,NNW,332,4.0,4.0,50,0.00,,---,0.00,VWS V14.00,2013-09-12 21:04:00,
2013-09-12 16:09:00,88.0,66.5,29.98,NNW,343,6.0,11.0,49,0.00,,---,0.00,VWS V14.00,2013-09-12 21:09:00,
2013-09-12 16:14:00,88.0,65.9,29.98,NNW,336,5.0,6.0,48,0.00,,---,0.00,VWS V14.00,2013-09-12 21:14:00,
2013-09-12 16:19:00,87.8,66.3,29.98,NNW,331,6.0,9.0,49,0.00,,---,0.00,VWS V14.00,2013-09-12 21:19:00,
2013-09-12 16:24:00,87.8,66.9,29.98,NNW,331,4.0,4.0,50,0.00,,---,0.00,VWS V14.00,2013-09-12 21:24:00,
2013-09-12 16:29:00,88.0,67.1,29.97,NNW,331,3.0,11.0,50,0.00,,---,0.00,VWS V14.00,2013-09-12 21:29:00,
2013-09-12 16:34:00,88.0,67.6,29.97,NW,323,8.0,12.0,51,0.00,,---,0.00,VWS V14.00,2013-09-12 21:34:00,
2013-09-12 16:39:00,87.8,67.4,29.97,NNW,329,3.0,5.0,51,0.00,,---,0.00,VWS V14.00,2013-09-12 21:39:00,
2013-09-12 16:44:00,88.0,67.6,29.97,NNW,344,3.0,4.0,51,0.00,,---,0.00,VWS V14.00,2013-09-12 21:44:00,
2013-09-12 16:49:00,87.8,67.4,29.97,North,11,4.0,7.0,51,0.00,,---,0.00,VWS V14.00,2013-09-12 21:49:00,
2013-09-12 16:54:00,87.8,68.0,29.97,North,9,4.0,7.0,52,0.00,,---,0.00,VWS V14.00,2013-09-12 21:54:00,
2013-09-12 16:59:00,87.6,67.8,29.98,NNW,348,4.0,7.0,52,0.00,,---,0.00,VWS V14.00,2013-09-12 21:59:00,
2013-09-12 17:04:00,87.4,67.6,29.98,North,350,3.0,4.0,52,0.00,,---,0.00,VWS V14.00,2013-09-12 22:04:00,
2013-09-12 17:09:00,87.6,67.2,29.97,North,355,4.0,6.0,51,0.00,,---,0.00,VWS V14.00,2013-09-12 22:09:00,
2013-09-12 17:14:00,87.6,67.8,29.97,North,5,3.0,7.0,52,0.00,,---,0.00,VWS V14.00,2013-09-12 22:14:00,
2013-09-12 17:19:00,87.6,67.8,29.97,NNE,15,0.0,2.0,52,0.00,,---,0.00,VWS V14.00,2013-09-12 22:19:00,
2013-09-12 17:24:00,87.6,67.8,29.97,NNW,347,6.0,10.0,52,0.00,,---,0.00,VWS V14.00,2013-09-12 22:24:00,
2013-09-12 17:29:00,87.4,67.6,29.97,NNW,343,4.0,8.0,52,0.00,,---,0.00,VWS V14.00,2013-09-12 22:29:00,
2013-09-12 17:34:00,87.0,66.7,29.97,NNW,335,5.0,7.0,51,0.00,,---,0.00,VWS V14.00,2013-09-12 22:34:00,
2013-09-12 17:39:00,87.0,67.3,29.97,NNW,338,4.0,4.0,52,0.00,,---,0.00,VWS V14.00,2013-09-12 22:39:00,
2013-09-12 17:44:00,86.7,67.5,29.97,NNW,338,5.0,7.0,53,0.00,,---,0.00,VWS V14.00,2013-09-12 22:44:00,
2013-09-12 17:49:00,86.7,68.1,29.97,NNW,343,0.0,3.0,54,0.00,,---,0.00,VWS V14.00,2013-09-12 22:49:00,
2013-09-12 17:54:00,86.5,67.3,29.97,North,350,6.0,9.0,53,0.00,,---,0.00,VWS V14.00,2013-09-12 22:54:00,
2013-09-12 17:59:00,86.5,67.9,29.97,North,355,1.0,4.0,54,0.00,,---,0.00,VWS V14.00,2013-09-12 22:59:00,
2013-09-12 18:04:00,86.5,67.3,29.97,NNW,344,9.0,10.0,53,0.00,,---,0.00,VWS V14.00,2013-09-12 23:04:00,
2013-09-12 18:09:00,86.3,66.6,29.98,NNW,342,11.0,11.0,52,0.00,,---,0.00,VWS V14.00,2013-09-12 23:09:00,
2013-09-12 18:14:00,86.3,66.6,29.98,NNW,346,4.0,7.0,52,0.00,,---,0.00,VWS V14.00,2013-09-12 23:14:00,
2013-09-12 18:19:00,86.1,66.4,29.98,NNW,344,3.0,6.0,52,0.00,,---,0.00,VWS V14.00,2013-09-12 23:19:00,
2013-09-12 18:24:00,86.1,67.0,29.98,NNW,342,3.0,6.0,53,0.00,,---,0.00,VWS V14.00,2013-09-12 23:24:00,
2013-09-12 18:29:00,85.9,66.8,29.98,NNW,342,5.0,7.0,53,0.00,,---,0.00,VWS V14.00,2013-09-12 23:29:00,
2013-09-12 18:34:00,85.7,66.6,29.98,NNW,342,2.0,3.0,53,0.00,,---,0.00,VWS V14.00,2013-09-12 23:34:00,
2013-09-12 18:39:00,85.5,67.5,29.98,NNW,342,5.0,5.0,55,0.00,,---,0.00,VWS V14.00,2013-09-12 23:39:00,
2013-09-12 18:44:00,85.3,67.3,29.98,NNW,342,0.0,1.0,55,0.00,,---,0.00,VWS V14.00,2013-09-12 23:44:00,
2013-09-12 18:49:00,84.9,66.9,29.98,NNW,342,0.0,0.0,55,0.00,,---,0.00,VWS V14.00,2013-09-12 23:49:00,
2013-09-12 18:54:00,84.3,66.9,29.99,NNW,342,0.0,0.0,56,0.00,,---,0.00,VWS V14.00,2013-09-12 23:54:00,
2013-09-12 18:59:00,84.0,67.7,29.99,NNW,342,0.0,0.0,58,0.00,,---,0.00,VWS V14.00,2013-09-12 23:59:00,
2013-09-12 19:04:00,83.6,67.8,29.99,NNW,342,0.0,0.0,59,0.00,,---,0.00,VWS V14.00,2013-09-13 00:04:00,
2013-09-12 19:09:00,83.2,67.9,29.99,NNW,342,0.0,0.0,60,0.00,,---,0.00,VWS V14.00,2013-09-13 00:09:00,
2013-09-12 19:14:00,82.6,67.8,29.99,NNW,342,0.0,0.0,61,0.00,,---,0.00,VWS V14.00,2013-09-13 00:14:00,
2013-09-12 19:19:00,82.2,67.9,29.99,NNW,342,0.0,0.0,62,0.00,,---,0.00,VWS V14.00,2013-09-13 00:19:00,
2013-09-12 19:24:00,81.8,68.0,30.00,NNW,342,0.0,0.0,63,0.00,,---,0.00,VWS V14.00,2013-09-13 00:24:00,
2013-09-12 19:29:00,81.4,68.5,29.99,NNW,342,0.0,0.0,65,0.00,,---,0.00,VWS V14.00,2013-09-13 00:29:00,
2013-09-12 19:34:00,81.1,68.2,30.00,NNW,342,0.0,0.0,65,0.00,,---,0.00,VWS V14.00,2013-09-13 00:34:00,
2013-09-12 19:39:00,80.7,68.3,30.00,NNW,342,0.0,0.0,66,0.00,,---,0.00,VWS V14.00,2013-09-13 00:39:00,
2013-09-12 19:44:00,80.1,68.2,30.00,NNW,342,0.0,0.0,67,0.00,,---,0.00,VWS V14.00,2013-09-13 00:44:00,
2013-09-12 19:49:00,79.8,68.3,30.00,NNW,342,0.0,0.0,68,0.00,,---,0.00,VWS V14.00,2013-09-13 00:49:00,
2013-09-12 19:54:00,79.4,68.3,30.00,NNW,342,0.0,0.0,69,0.00,,---,0.00,VWS V14.00,2013-09-13 00:54:00,
2013-09-12 19:59:00,78.8,68.2,30.00,NNW,342,0.0,0.0,70,0.00,,---,0.00,VWS V14.00,2013-09-13 00:59:00,
2013-09-12 20:04:00,78.6,68.4,30.00,NNW,342,0.0,0.0,71,0.00,,---,0.00,VWS V14.00,2013-09-13 01:04:00,
2013-09-12 20:09:00,78.3,68.5,30.00,NNW,342,0.0,0.0,72,0.00,,---,0.00,VWS V14.00,2013-09-13 01:09:00,
2013-09-12 20:14:00,78.5,68.7,30.00,NNW,342,0.0,0.0,72,0.00,,---,0.00,VWS V14.00,2013-09-13 01:14:00,
2013-09-12 20:19:00,78.8,68.6,30.00,NNW,342,0.0,0.0,71,0.00,,---,0.00,VWS V14.00,2013-09-13 01:19:00,
2013-09-12 20:24:00,79.0,69.2,30.01,NNW,342,0.0,0.0,72,0.00,,---,0.00,VWS V14.00,2013-09-13 01:24:00,
2013-09-12 20:29:00,79.0,69.6,30.01,NNW,342,0.0,0.0,73,0.00,,---,0.00,VWS V14.00,2013-09-13 01:29:00,
2013-09-12 20:34:00,79.0,69.6,30.01,NNW,342,0.0,0.0,73,0.00,,---,0.00,VWS V14.00,2013-09-13 01:34:00,
2013-09-12 20:39:00,78.8,69.4,30.01,NNW,342,0.0,0.0,73,0.00,,---,0.00,VWS V14.00,2013-09-13 01:39:00,
2013-09-12 20:44:00,78.8,69.4,30.01,NNW,342,0.0,0.0,73,0.00,,---,0.00,VWS V14.00,2013-09-13 01:44:00,
2013-09-12 20:49:00,78.5,69.5,30.01,NNW,342,0.0,0.0,74,0.00,,---,0.00,VWS V14.00,2013-09-13 01:49:00,
2013-09-12 20:54:00,78.3,69.3,30.02,NNW,342,0.0,0.0,74,0.00,,---,0.00,VWS V14.00,2013-09-13 01:54:00,
2013-09-12 20:59:00,78.3,69.7,30.01,NNW,342,0.0,0.0,75,0.00,,---,0.00,VWS V14.00,2013-09-13 01:59:00,
2013-09-12 21:04:00,78.3,69.7,30.01,NNW,342,0.0,0.0,75,0.00,,---,0.00,VWS V14.00,2013-09-13 02:04:00,
2013-09-12 21:09:00,78.3,69.7,30.01,NNW,342,0.0,0.0,75,0.00,,---,0.00,VWS V14.00,2013-09-13 02:09:00,
2013-09-12 21:14:00,78.1,69.5,30.01,NNW,342,0.0,0.0,75,0.00,,---,0.00,VWS V14.00,2013-09-13 02:14:00,
2013-09-12 21:19:00,77.7,69.2,30.01,NNW,342,0.0,0.0,75,0.00,,---,0.00,VWS V14.00,2013-09-13 02:19:00,
2013-09-12 21:24:00,77.6,69.4,30.01,NNW,342,0.0,0.0,76,0.00,,---,0.00,VWS V14.00,2013-09-13 02:24:00,
2013-09-12 21:29:00,77.2,69.1,30.02,NNW,342,0.0,0.0,76,0.00,,---,0.00,VWS V14.00,2013-09-13 02:29:00,
2013-09-12 21:34:00,77.0,69.2,30.02,NNW,342,0.0,0.0,77,0.00,,---,0.00,VWS V14.00,2013-09-13 02:34:00,
2013-09-12 21:39:00,76.7,69.3,30.02,NNW,342,0.0,0.0,78,0.00,,---,0.00,VWS V14.00,2013-09-13 02:39:00,
2013-09-12 21:44:00,76.5,69.5,30.02,NNW,342,0.0,0.0,79,0.00,,---,0.00,VWS V14.00,2013-09-13 02:44:00,
2013-09-12 21:49:00,76.5,69.5,30.02,NNW,342,0.0,0.0,79,0.00,,---,0.00,VWS V14.00,2013-09-13 02:49:00,
2013-09-12 21:54:00,76.8,69.4,30.02,NNW,342,0.0,0.0,78,0.00,,---,0.00,VWS V14.00,2013-09-13 02:54:00,
2013-09-12 21:59:00,77.2,69.1,30.02,NNW,342,0.0,0.0,76,0.00,,---,0.00,VWS V14.00,2013-09-13 02:59:00,
2013-09-12 22:04:00,77.6,69.1,30.02,NNW,342,0.0,0.0,75,0.00,,---,0.00,VWS V14.00,2013-09-13 03:04:00,
2013-09-12 22:09:00,77.7,69.2,30.02,NNW,342,0.0,0.0,75,0.00,,---,0.00,VWS V14.00,2013-09-13 03:09:00,
2013-09-12 22:14:00,77.7,69.2,30.02,NNW,342,0.0,0.0,75,0.00,,---,0.00,VWS V14.00,2013-09-13 03:14:00,
2013-09-12 22:19:00,77.7,68.8,30.02,NNW,342,0.0,0.0,74,0.00,,---,0.00,VWS V14.00,2013-09-13 03:19:00,
2013-09-12 22:24:00,77.7,68.8,30.02,NNW,342,0.0,0.0,74,0.00,,---,0.00,VWS V14.00,2013-09-13 03:24:00,
2013-09-12 22:29:00,77.7,68.8,30.02,NNW,342,0.0,0.0,74,0.00,,---,0.00,VWS V14.00,2013-09-13 03:29:00,
2013-09-12 22:34:00,77.6,68.3,30.02,NNW,342,0.0,0.0,73,0.00,,---,0.00,VWS V14.00,2013-09-13 03:34:00,
2013-09-12 22:39:00,77.6,68.7,30.02,NNW,342,0.0,0.0,74,0.00,,---,0.00,VWS V14.00,2013-09-13 03:39:00,
2013-09-12 22:44:00,77.4,68.1,30.02,NNW,342,0.0,0.0,73,0.00,,---,0.00,VWS V14.00,2013-09-13 03:44:00,
2013-09-12 22:49:00,77.4,68.1,30.02,NNW,342,0.0,0.0,73,0.00,,---,0.00,VWS V14.00,2013-09-13 03:49:00,
2013-09-12 22:54:00,77.2,68.3,30.02,NNW,342,0.0,0.0,74,0.00,,---,0.00,VWS V14.00,2013-09-13 03:54:00,
2013-09-12 22:59:00,77.2,67.9,30.02,NNW,342,0.0,0.0,73,0.00,,---,0.00,VWS V14.00,2013-09-13 03:59:00,
2013-09-12 23:01:00,77.2,67.9,30.02,NNW,342,0.0,0.0,73,0.00,,---,0.00,VWS V14.00,2013-09-13 04:01:00,
2013-09-12 23:06:00,77.0,67.7,30.02,NNW,342,0.0,0.0,73,0.00,,---,0.00,VWS V14.00,2013-09-13 04:06:00,
2013-09-12 23:11:00,76.8,67.5,30.02,NNW,342,0.0,0.0,73,0.00,,---,0.00,VWS V14.00,2013-09-13 04:11:00,
2013-09-12 23:16:00,76.8,67.5,30.02,NNW,342,0.0,0.0,73,0.00,,---,0.00,VWS V14.00,2013-09-13 04:16:00,
2013-09-12 23:21:00,76.8,67.5,30.02,NNW,342,0.0,0.0,73,0.00,,---,0.00,VWS V14.00,2013-09-13 04:21:00,
2013-09-12 23:26:00,76.8,67.1,30.02,NNW,342,0.0,0.0,72,0.00,,---,0.00,VWS V14.00,2013-09-13 04:26:00,
2013-09-12 23:31:00,76.7,67.0,30.02,NNW,342,0.0,0.0,72,0.00,,---,0.00,VWS V14.00,2013-09-13 04:31:00,
2013-09-12 23:36:00,76.7,67.0,30.02,NNW,342,0.0,0.0,72,0.00,,---,0.00,VWS V14.00,2013-09-13 04:36:00,
2013-09-12 23:41:00,76.7,67.0,30.02,NNW,342,0.0,0.0,72,0.00,,---,0.00,VWS V14.00,2013-09-13 04:41:00,
2013-09-12 23:46:00,76.7,67.0,30.02,NNW,342,0.0,0.0,72,0.00,,---,0.00,VWS V14.00,2013-09-13 04:46:00,
2013-09-12 23:51:00,76.7,67.0,30.02,NNW,342,0.0,0.0,72,0.00,,---,0.00,VWS V14.00,2013-09-13 04:51:00,
2013-09-12 23:56:00,76.5,66.8,30.02,NNW,342,0.0,0.0,72,0.00,,---,0.00,VWS V14.00,2013-09-13 04:56:00,